, WY

(GMT )
South Pass

Weather History for KFWZ - November, 2012

Change the Weather History Date:

Thursday, November 1, 2012

  Actual Average Record
Temperature  
Mean Temperature 44 °F -  
Max Temperature 50 °F - - ()
Min Temperature 37 °F - - ()
Degree Days  
Heating Degree Days 22    
Moisture  
Dew Point 21 °F    
Average Humidity 41    
Maximum Humidity 70    
Minimum Humidity 24    
Precipitation  
Precipitation 0.00 in - - ()
Sea Level Pressure  
Sea Level Pressure 30.02 in    
Wind  
Wind Speed 12 mph ()    
Max Wind Speed 22 mph    
Max Gust Speed 43 mph    
Visibility 10.0 miles    
Events      
Averages and records for this station are not official NWS values.
T = Trace of Precipitation, MM = Missing Value Source: Averaged Metar Reports

Daily Weather History Graph

Daily Weather History Graph

Search for Another Location

Airport or City:

Trip Planner

Search our weather history database for the weather conditions in past years. The results will help you decide how hot, cold, wet, or windy it might be!

Date:

Astronomy

Nov. 01, 2012 Rise Set
Actual Time 7:49 AM MDT 6:07 PM MDT
Civil Twilight 7:20 AM MDT 6:36 PM MDT
Nautical Twilight 6:46 AM MDT 7:09 PM MDT
Astronomical Twilight 6:13 AM MDT 7:42 PM MDT
Moon 8:04 PM MDT (11/1) 10:27 AM MDT (11/1)
Length of Visible Light 11h 16m
Length of Day
10h 17m
Waning Gibbous, 92% of the Moon is Illuminated
Nov 1
Waning Gibbous
Nov 6
Last Quarter
Nov 13
New
Nov 20
First Quarter
Nov 28
Full

Hourly Weather History & Observations

Time (MDT) Temp. Windchill Dew Point Humidity Pressure Visibility Wind Dir Wind Speed Gust Speed Precip Events Conditions
12:15 AM 44.6 °F 40.2 °F 23.0 °F 43% 30.14 in 10.0 mi SW 8.1 mph - N/A   Clear
12:35 AM 44.6 °F 39.7 °F 21.2 °F 39% 30.14 in 10.0 mi SW 9.2 mph - N/A   Clear
12:55 AM 44.6 °F 39.7 °F 21.2 °F 39% 30.14 in 10.0 mi SW 9.2 mph - N/A   Clear
1:15 AM 44.6 °F 39.2 °F 19.4 °F 37% 30.13 in 10.0 mi SW 10.4 mph - N/A   Clear
1:35 AM 44.6 °F 39.2 °F 19.4 °F 37% 30.12 in 10.0 mi SW 10.4 mph - N/A   Clear
1:55 AM 44.6 °F 39.2 °F 19.4 °F 37% 30.10 in 10.0 mi SW 10.4 mph - N/A   Clear
2:15 AM 44.6 °F 38.1 °F 19.4 °F 37% 30.10 in 10.0 mi WSW 13.8 mph - N/A   Clear
2:35 AM 44.6 °F 37.8 °F 19.4 °F 37% 30.09 in 10.0 mi WSW 15.0 mph - N/A   Clear
2:55 AM 44.6 °F 37.4 °F 19.4 °F 37% 30.08 in 10.0 mi WSW 16.1 mph 21.9 mph N/A   Clear
3:15 AM 44.6 °F 37.4 °F 19.4 °F 37% 30.08 in 10.0 mi WSW 16.1 mph 21.9 mph N/A   Clear
3:35 AM 44.6 °F 37.4 °F 19.4 °F 37% 30.07 in 10.0 mi WSW 16.1 mph 19.6 mph N/A   Clear
3:55 AM 44.6 °F 38.1 °F 19.4 °F 37% 30.07 in 10.0 mi WSW 13.8 mph 19.6 mph N/A   Clear
4:15 AM 44.6 °F 38.4 °F 19.4 °F 37% 30.06 in 10.0 mi WSW 12.7 mph - N/A   Clear
4:35 AM 44.6 °F 38.8 °F 21.2 °F 39% 30.06 in 10.0 mi WSW 11.5 mph - N/A   Clear
4:55 AM 44.6 °F 39.2 °F 21.2 °F 39% 30.06 in 10.0 mi West 10.4 mph - N/A   Clear
5:15 AM 42.8 °F 37.0 °F 21.2 °F 42% 30.06 in 10.0 mi WSW 10.4 mph - N/A   Clear
5:35 AM 42.8 °F 37.5 °F 21.2 °F 42% 30.06 in 10.0 mi WSW 9.2 mph - N/A   Clear
5:55 AM 41.0 °F 34.7 °F 21.2 °F 45% 30.06 in 10.0 mi WSW 10.4 mph - N/A   Clear
6:15 AM 41.0 °F 35.8 °F 21.2 °F 45% 30.06 in 10.0 mi WSW 8.1 mph - N/A   Clear
6:35 AM 41.0 °F 35.8 °F 21.2 °F 45% 30.06 in 10.0 mi West 8.1 mph - N/A   Clear
6:55 AM 41.0 °F 35.8 °F 21.2 °F 45% 30.06 in 10.0 mi West 8.1 mph - N/A   Clear
7:15 AM 41.0 °F 37.1 °F 21.2 °F 45% 30.05 in 10.0 mi West 5.8 mph - N/A   Clear
7:35 AM 41.0 °F 37.1 °F 21.2 °F 45% 30.05 in 10.0 mi WSW 5.8 mph - N/A   Clear
7:55 AM 41.0 °F 35.8 °F 23.0 °F 49% 30.04 in 10.0 mi WSW 8.1 mph - N/A   Clear
8:15 AM 39.2 °F 33.6 °F 23.0 °F 52% 30.03 in 10.0 mi SW 8.1 mph - N/A   Clear
8:35 AM 39.2 °F 30.8 °F 23.0 °F 52% 30.03 in 10.0 mi WSW 15.0 mph 19.6 mph N/A   Clear
8:55 AM 42.8 °F 36.2 °F 23.0 °F 46% 30.03 in 10.0 mi SW 12.7 mph 18.4 mph N/A   Clear
9:15 AM 42.8 °F 36.6 °F 23.0 °F 46% 30.03 in 10.0 mi SW 11.5 mph 19.6 mph N/A   Clear
9:35 AM 44.6 °F 37.8 °F 21.2 °F 39% 30.01 in 10.0 mi SW 15.0 mph 20.7 mph N/A   Clear
9:55 AM 44.6 °F 37.8 °F 21.2 °F 39% 30.01 in 10.0 mi WSW 15.0 mph 23.0 mph N/A   Clear
10:15 AM 44.6 °F 36.9 °F 21.2 °F 39% 30.02 in 10.0 mi WSW 18.4 mph 27.6 mph N/A   Clear
10:35 AM 44.6 °F 38.4 °F 21.2 °F 39% 30.02 in 10.0 mi SW 12.7 mph 21.9 mph N/A   Clear
10:55 AM 44.6 °F 37.8 °F 23.0 °F 43% 30.02 in 10.0 mi SW 15.0 mph 20.7 mph N/A   Clear
11:15 AM 44.6 °F 38.1 °F 23.0 °F 43% 30.02 in 10.0 mi SW 13.8 mph 23.0 mph N/A   Clear
11:35 AM 44.6 °F 38.1 °F 23.0 °F 43% 30.02 in 10.0 mi SW 13.8 mph 23.0 mph N/A   Clear
11:55 AM 44.6 °F 37.2 °F 23.0 °F 43% 30.01 in 10.0 mi SW 17.3 mph 23.0 mph N/A   Clear
12:15 PM 46.4 °F 39.5 °F 21.2 °F 37% 30.00 in 10.0 mi SW 17.3 mph 25.3 mph N/A   Clear
12:35 PM 50.0 °F - 19.4 °F 30% 30.00 in 10.0 mi SW 20.7 mph 24.2 mph N/A   Clear
12:55 PM 50.0 °F - 19.4 °F 30% 29.98 in 10.0 mi WSW 18.4 mph 25.3 mph N/A   Clear
1:15 PM 50.0 °F - 17.6 °F 28% 29.97 in 10.0 mi WSW 19.6 mph 28.8 mph N/A   Unknown
1:35 PM 50.0 °F - 17.6 °F 28% 29.96 in 10.0 mi WSW 16.1 mph 25.3 mph N/A   Clear
1:55 PM 50.0 °F - 14.0 °F 24% 29.96 in 10.0 mi WSW 19.6 mph 28.8 mph N/A   Clear
2:15 PM 48.2 °F - 14.0 °F 25% 29.96 in 10.0 mi WSW 18.4 mph 26.5 mph N/A   Clear
2:35 PM 50.0 °F - 15.8 °F 26% 29.96 in 10.0 mi WSW 15.0 mph 23.0 mph N/A   Clear
2:55 PM 50.0 °F - 14.0 °F 24% 29.96 in 10.0 mi WSW 16.1 mph 27.6 mph N/A   Clear
3:15 PM 46.4 °F 38.7 °F 14.0 °F 27% 29.96 in 10.0 mi WSW 20.7 mph 31.1 mph N/A   Clear
3:35 PM 48.2 °F - 15.8 °F 27% 29.96 in 10.0 mi WSW 18.4 mph 25.3 mph N/A   Clear
3:55 PM 48.2 °F - 14.0 °F 25% 29.96 in 10.0 mi WSW 17.3 mph 26.5 mph N/A   Clear
4:15 PM 46.4 °F 39.2 °F 14.0 °F 27% 29.97 in 10.0 mi WSW 18.4 mph 27.6 mph N/A   Clear
4:35 PM 46.4 °F 39.8 °F 15.8 °F 29% 29.96 in 10.0 mi WSW 16.1 mph 25.3 mph N/A   Clear
4:55 PM 46.4 °F 40.7 °F 15.8 °F 29% 29.96 in 10.0 mi WSW 12.7 mph 21.9 mph N/A   Clear
5:15 PM 46.4 °F 41.1 °F 15.8 °F 29% 29.96 in 10.0 mi WSW 11.5 mph 20.7 mph N/A   Clear
5:35 PM 46.4 °F 40.4 °F 15.8 °F 29% 29.96 in 10.0 mi WSW 13.8 mph 21.9 mph N/A   Clear
5:55 PM 44.6 °F 38.8 °F 17.6 °F 34% 29.96 in 10.0 mi West 11.5 mph 20.7 mph N/A   Scattered Clouds
6:15 PM 44.6 °F 37.4 °F 17.6 °F 34% 29.95 in 10.0 mi West 16.1 mph 23.0 mph N/A   Mostly Cloudy
6:35 PM 44.6 °F 36.9 °F 17.6 °F 34% 29.94 in 10.0 mi West 18.4 mph 36.8 mph N/A   Scattered Clouds
6:55 PM 42.8 °F 33.8 °F 19.4 °F 39% 29.93 in 10.0 mi West 21.9 mph 42.6 mph N/A   Clear
7:15 PM 42.8 °F 33.8 °F 21.2 °F 42% 29.94 in 10.0 mi WSW 21.9 mph 34.5 mph N/A   Clear
7:35 PM 42.8 °F 34.3 °F 23.0 °F 46% 29.96 in 10.0 mi WSW 19.6 mph 28.8 mph N/A   Clear
7:55 PM 41.0 °F 33.9 °F 23.0 °F 49% 29.98 in 10.0 mi West 12.7 mph 18.4 mph N/A   Clear
8:15 PM 41.0 °F 33.5 °F 23.0 °F 49% 29.98 in 10.0 mi West 13.8 mph 18.4 mph N/A   Clear
8:35 PM 41.0 °F 35.2 °F 23.0 °F 49% 29.98 in 10.0 mi West 9.2 mph 18.4 mph N/A   Clear
8:55 PM 41.0 °F 35.8 °F 24.8 °F 53% 29.98 in 10.0 mi West 8.1 mph 17.3 mph N/A   Clear
9:15 PM 41.0 °F 34.3 °F 24.8 °F 53% 29.98 in 10.0 mi West 11.5 mph 21.9 mph N/A   Clear
9:35 PM 39.2 °F 33.6 °F 26.6 °F 61% 29.99 in 10.0 mi West 8.1 mph - N/A   Clear
9:55 PM 39.2 °F 31.6 °F 26.6 °F 61% 29.99 in 10.0 mi WSW 12.7 mph 25.3 mph N/A   Clear
10:15 PM 37.4 °F 30.8 °F 26.6 °F 65% 29.98 in 10.0 mi West 9.2 mph 24.2 mph N/A   Clear
10:35 PM 37.4 °F 29.8 °F 28.4 °F 70% 29.98 in 10.0 mi WSW 11.5 mph 19.6 mph N/A   Clear
10:55 PM 37.4 °F 31.4 °F 26.6 °F 65% 29.99 in 10.0 mi West 8.1 mph - N/A   Clear
11:15 PM 37.4 °F 30.8 °F 26.6 °F 65% 29.99 in 10.0 mi West 9.2 mph - N/A   Clear
11:35 PM 37.4 °F 31.4 °F 28.4 °F 70% 29.99 in 10.0 mi West 8.1 mph 16.1 mph N/A   Clear